Location: Nairn
(57.5833°N, 3.8667°W)
Time: 02:40:56
(UTC+00:00)

Meteor 2-9 Rocket - Pass Details

Date: 07 August 2020
Orbit: 792 x 895 km, 81.3° (Epoch: 27 September)

Event Time Altitude Azimuth Distance (km) Brightness Sun altitude
Exits shadow 00:41:30 24° 169° (S) 1,675 5.2 -16.0°
Maximum altitude 00:44:48 60° 98° (E) 976 4.5 -15.9°
Drops below altitude 10° 00:50:25 10° 20° (NNE) 2,526 7.9 -15.8°
Sets 00:52:56 0° 17° (NNE) 3,482 9.1 -15.8°
